^^
Anthem North Phoenix Station Historical Data
 
Daily Summary for December 11, 2018 Units:  English    Metric   Both
Daily Weekly Monthly Yearly Custom
  Current: High: Low: Average:
Temperature: 69.8 °F 73.5 °F 57 °F 62.9 °F
Dew Point: 35 °F 35 °F 30 °F 32.1 °F
Humidity: 28% 39% 22% 32%
Wind Speed: 1mph 12mph 0mph 3.4mph
Wind Gust: 2mph 18mph - -
WindSE - - SE
Pressure: 30.05 in 30.14 in 30.04 in -
Precipitation: 0 in      
Historical Graphs
 
 
Tabular Data for December 11, 2018
Time Temperature Dew Point Pressure Wind Wind Speed Wind Gust Humidity Rainfall Rate (Hourly)
00:00 59 °F 33 °F 30.14 in North 3 mph 6 mph 37% 0 in
00:05 58.9 °F 32 °F 30.14 in NNE 1 mph 5 mph 37% 0 in
00:10 58.8 °F 32 °F 30.13 in NNE 5 mph 6 mph 37% 0 in
00:15 58.7 °F 32 °F 30.14 in NNE 3 mph 6 mph 36% 0 in
00:20 59 °F 32 °F 30.13 in North 4 mph 8 mph 36% 0 in
00:25 59 °F 33 °F 30.13 in NE 3 mph 8 mph 37% 0 in
00:30 58.6 °F 32 °F 30.13 in NE 4 mph 6 mph 37% 0 in
00:35 58.5 °F 32 °F 30.13 in NNE 4 mph 6 mph 37% 0 in
00:40 58.4 °F 32 °F 30.13 in NE 3 mph 6 mph 37% 0 in
00:45 58.3 °F 33 °F 30.13 in NE 6 mph 7 mph 38% 0 in
00:50 58.3 °F 33 °F 30.13 in NNE 4 mph 8 mph 38% 0 in
00:55 58.1 °F 32 °F 30.13 in NNE 3 mph 8 mph 38% 0 in
01:00 58.2 °F 32 °F 30.13 in NNW 1 mph 6 mph 38% 0 in
01:05 58.2 °F 32 °F 30.13 in North 2 mph 4 mph 37% 0 in
01:10 58 °F 32 °F 30.13 in NNE 2 mph 3 mph 37% 0 in
01:15 58.2 °F 32 °F 30.13 in North 1 mph 4 mph 37% 0 in
01:20 58 °F 32 °F 30.13 in North 2 mph 4 mph 37% 0 in
01:25 58.1 °F 32 °F 30.13 in North 3 mph 4 mph 37% 0 in
01:30 58.3 °F 32 °F 30.12 in NNE 2 mph 6 mph 37% 0 in
01:35 58 °F 32 °F 30.12 in North 4 mph 6 mph 38% 0 in
01:40 57.9 °F 32 °F 30.12 in NE 6 mph 6 mph 38% 0 in
01:45 58 °F 32 °F 30.12 in North 4 mph 6 mph 37% 0 in
01:50 58.4 °F 31 °F 30.12 in NNE 3 mph 7 mph 36% 0 in
01:55 58.4 °F 31 °F 30.12 in North 2 mph 7 mph 36% 0 in
02:00 58.6 °F 31 °F 30.12 in NNE 2 mph 6 mph 35% 0 in
02:05 58.3 °F 31 °F 30.11 in North 2 mph 5 mph 36% 0 in
02:10 58.4 °F 31 °F 30.11 in NNE 3 mph 5 mph 35% 0 in
02:15 58.7 °F 30 °F 30.11 in North 1 mph 5 mph 34% 0 in
02:20 58.1 °F 31 °F 30.12 in North 1 mph 3 mph 36% 0 in
02:25 57.9 °F 31 °F 30.12 in North 4 mph 4 mph 36% 0 in
02:30 57.9 °F 31 °F 30.12 in NNE 4 mph 5 mph 36% 0 in
02:35 58.3 °F 31 °F 30.12 in NE 2 mph 7 mph 35% 0 in
02:40 58.1 °F 31 °F 30.12 in NE 2 mph 6 mph 36% 0 in
02:45 58.3 °F 31 °F 30.12 in NNE 5 mph 6 mph 36% 0 in
02:50 58.1 °F 31 °F 30.12 in North 2 mph 6 mph 36% 0 in
02:55 58 °F 32 °F 30.12 in NE 6 mph 6 mph 37% 0 in
03:00 57.8 °F 31 °F 30.12 in North 3 mph 7 mph 37% 0 in
03:05 58 °F 31 °F 30.11 in NNE 3 mph 8 mph 36% 0 in
03:10 58 °F 31 °F 30.11 in NNE 5 mph 8 mph 36% 0 in
03:15 58 °F 31 °F 30.11 in NNE 3 mph 5 mph 36% 0 in
03:20 57.9 °F 32 °F 30.11 in North 4 mph 8 mph 37% 0 in
03:25 57.8 °F 31 °F 30.11 in North 4 mph 8 mph 37% 0 in
03:30 57.8 °F 31 °F 30.11 in North 3 mph 9 mph 37% 0 in
03:35 57.7 °F 31 °F 30.11 in NNE 10 mph 10 mph 37% 0 in
03:40 58.3 °F 31 °F 30.11 in NNE 4 mph 11 mph 35% 0 in
03:45 58.3 °F 31 °F 30.10 in North 2 mph 9 mph 35% 0 in
03:50 58.4 °F 31 °F 30.10 in NE 2 mph 7 mph 35% 0 in
03:55 58.1 °F 30 °F 30.10 in NNE 1 mph 7 mph 35% 0 in
04:00 57.8 °F 31 °F 30.10 in NNE 1 mph 3 mph 36% 0 in
04:05 57.9 °F 31 °F 30.10 in NW 5 mph 9 mph 36% 0 in
04:10 58.1 °F 31 °F 30.10 in NNW 6 mph 10 mph 36% 0 in
04:15 57.9 °F 31 °F 30.10 in NNE 3 mph 7 mph 36% 0 in
04:20 57.8 °F 31 °F 30.09 in NE 2 mph 7 mph 36% 0 in
04:25 58 °F 30 °F 30.10 in North 6 mph 8 mph 35% 0 in
04:30 58 °F 30 °F 30.10 in NNW 5 mph 8 mph 35% 0 in
04:35 58 °F 30 °F 30.10 in North 4 mph 9 mph 35% 0 in
04:40 57.9 °F 31 °F 30.09 in NNE 2 mph 7 mph 36% 0 in
04:45 57.9 °F 30 °F 30.10 in NW 2 mph 9 mph 35% 0 in
04:50 57.8 °F 31 °F 30.10 in North 6 mph 8 mph 36% 0 in
04:55 57.6 °F 31 °F 30.10 in North 3 mph 7 mph 37% 0 in
05:00 57.4 °F 31 °F 30.09 in NNE 6 mph 7 mph 37% 0 in
05:05 57.4 °F 31 °F 30.09 in NNE 7 mph 7 mph 37% 0 in
05:10 57.7 °F 31 °F 30.09 in NNE 5 mph 9 mph 36% 0 in
05:15 57.4 °F 31 °F 30.10 in NNE 4 mph 9 mph 37% 0 in
05:20 57.3 °F 31 °F 30.09 in NNE 5 mph 8 mph 37% 0 in
05:25 57.3 °F 31 °F 30.09 in NNW 6 mph 8 mph 37% 0 in
05:30 57.3 °F 31 °F 30.09 in North 1 mph 8 mph 37% 0 in
05:35 57.3 °F 31 °F 30.09 in North 1 mph 5 mph 37% 0 in
05:40 57.3 °F 31 °F 30.09 in NNE 2 mph 4 mph 37% 0 in
05:45 57.4 °F 30 °F 30.09 in North 2 mph 5 mph 36% 0 in
05:50 57.3 °F 31 °F 30.09 in North 2 mph 5 mph 37% 0 in
05:55 57.6 °F 31 °F 30.09 in NNE 2 mph 5 mph 36% 0 in
06:00 57.7 °F 31 °F 30.10 in NNE 3 mph 5 mph 37% 0 in
06:05 57.2 °F 30 °F 30.10 in NE 8 mph 8 mph 36% 0 in
06:10 57.6 °F 31 °F 30.10 in NNE 4 mph 9 mph 36% 0 in
06:15 57.5 °F 31 °F 30.11 in NNE 3 mph 8 mph 37% 0 in
06:20 57.4 °F 30 °F 30.11 in North 3 mph 8 mph 36% 0 in
06:25 57.5 °F 31 °F 30.11 in North 6 mph 9 mph 36% 0 in
06:30 57.7 °F 30 °F 30.11 in NNE 9 mph 9 mph 35% 0 in
06:35 58 °F 30 °F 30.12 in North 5 mph 9 mph 35% 0 in
06:40 58.2 °F 30 °F 30.12 in North 7 mph 11 mph 34% 0 in
06:45 58.4 °F 30 °F 30.12 in NE 5 mph 10 mph 34% 0 in
06:50 58.4 °F 31 °F 30.12 in NNE 3 mph 10 mph 35% 0 in
06:55 58.2 °F 31 °F 30.12 in NNE 2 mph 10 mph 35% 0 in
07:00 58.3 °F 31 °F 30.12 in NNW 4 mph 6 mph 35% 0 in
07:05 58.4 °F 30 °F 30.12 in NNE 3 mph 6 mph 34% 0 in
07:10 58.3 °F 30 °F 30.12 in North 5 mph 6 mph 34% 0 in
07:15 58.8 °F 30 °F 30.12 in NNW 4 mph 7 mph 34% 0 in
07:20 58.8 °F 30 °F 30.12 in NNE 6 mph 7 mph 34% 0 in
07:25 58.9 °F 30 °F 30.12 in NE 5 mph 7 mph 34% 0 in
07:30 58.8 °F 30 °F 30.12 in North 3 mph 7 mph 33% 0 in
07:35 59.2 °F 30 °F 30.12 in NNE 4 mph 7 mph 33% 0 in
07:40 59.1 °F 30 °F 30.12 in North 4 mph 7 mph 33% 0 in
07:45 58.7 °F 31 °F 30.12 in NNE 4 mph 7 mph 35% 0 in
07:50 57.8 °F 31 °F 30.12 in NNE 4 mph 5 mph 36% 0 in
07:55 58.2 °F 31 °F 30.12 in NNE 4 mph 7 mph 35% 0 in
08:00 57.9 °F 31 °F 30.12 in North 2 mph 7 mph 36% 0 in
08:05 57.2 °F 32 °F 30.12 in North 3 mph 6 mph 38% 0 in
08:10 57.1 °F 31 °F 30.11 in NNW 4 mph 9 mph 38% 0 in
08:15 57 °F 31 °F 30.12 in NE 5 mph 9 mph 38% 0 in
08:20 57 °F 32 °F 30.12 in North 3 mph 6 mph 39% 0 in
08:25 57.1 °F 32 °F 30.12 in NNE 3 mph 6 mph 39% 0 in
08:30 57.1 °F 32 °F 30.12 in North 3 mph 7 mph 39% 0 in
08:35 57.3 °F 32 °F 30.12 in NE 4 mph 7 mph 38% 0 in
08:40 57.6 °F 31 °F 30.12 in North 3 mph 8 mph 37% 0 in
08:45 57.8 °F 32 °F 30.13 in North 3 mph 8 mph 38% 0 in
08:50 58.1 °F 32 °F 30.13 in NNW 3 mph 8 mph 37% 0 in
08:55 58.3 °F 32 °F 30.12 in NNW 5 mph 10 mph 37% 0 in
09:00 58.4 °F 32 °F 30.13 in North 4 mph 14 mph 37% 0 in
09:05 58.4 °F 31 °F 30.13 in NNW 4 mph 14 mph 36% 0 in
09:10 58.4 °F 31 °F 30.13 in North 12 mph 12 mph 36% 0 in
09:15 58.6 °F 32 °F 30.13 in NNE 9 mph 12 mph 36% 0 in
09:20 59 °F 32 °F 30.14 in NNW 8 mph 12 mph 36% 0 in
09:25 59.4 °F 32 °F 30.14 in NNE 10 mph 12 mph 35% 0 in
09:30 59.9 °F 31 °F 30.14 in North 12 mph 18 mph 34% 0 in
09:35 60.5 °F 31 °F 30.14 in NE 6 mph 18 mph 33% 0 in
09:40 60.5 °F 32 °F 30.14 in NE 6 mph 13 mph 34% 0 in
09:45 60.9 °F 31 °F 30.14 in North 5 mph 12 mph 33% 0 in
09:50 61.7 °F 31 °F 30.14 in NNE 6 mph 15 mph 32% 0 in
09:55 62.3 °F 32 °F 30.14 in North 5 mph 16 mph 32% 0 in
10:00 62.8 °F 32 °F 30.13 in North 3 mph 16 mph 32% 0 in
10:05 63.5 °F 32 °F 30.13 in North 2 mph 8 mph 31% 0 in
10:10 64 °F 33 °F 30.13 in NNW 2 mph 7 mph 31% 0 in
10:15 64.2 °F 34 °F 30.13 in North 5 mph 8 mph 32% 0 in
10:20 64.5 °F 33 °F 30.13 in NW 3 mph 7 mph 31% 0 in
10:25 64.9 °F 33 °F 30.13 in NW 3 mph 8 mph 30% 0 in
10:30 65.4 °F 33 °F 30.13 in North 3 mph 8 mph 30% 0 in
10:35 65.6 °F 33 °F 30.13 in NNE 4 mph 9 mph 30% 0 in
10:40 66 °F 34 °F 30.13 in North 2 mph 9 mph 30% 0 in
10:45 66.4 °F 35 °F 30.12 in NNW 4 mph 9 mph 31% 0 in
10:50 66.9 °F 34 °F 30.12 in NNE 4 mph 8 mph 30% 0 in
10:55 67.2 °F 34 °F 30.12 in NNE 6 mph 8 mph 29% 0 in
11:00 67.5 °F 34 °F 30.12 in NNE 5 mph 7 mph 29% 0 in
11:05 67.7 °F 33 °F 30.12 in NNE 3 mph 6 mph 28% 0 in
11:10 68.1 °F 35 °F 30.11 in Calm   7 mph 29% 0 in
11:15 68.4 °F 33 °F 30.11 in NNE 2 mph 7 mph 27% 0 in
11:20 68.7 °F 34 °F 30.12 in NW 1 mph 7 mph 28% 0 in
11:25 69.1 °F 34 °F 30.11 in NNW 1 mph 6 mph 27% 0 in
11:30 69.4 °F 33 °F 30.11 in Calm   4 mph 26% 0 in
11:35 69.7 °F 33 °F 30.11 in SE 2 mph 3 mph 26% 0 in
11:40 70.2 °F 34 °F 30.11 in South 1 mph 4 mph 26% 0 in
11:45 70.9 °F 33 °F 30.10 in SW 2 mph 5 mph 25% 0 in
11:50 71 °F 33 °F 30.10 in SSW 2 mph 3 mph 25% 0 in
11:55 71.1 °F 34 °F 30.10 in SSE 2 mph 4 mph 26% 0 in
12:00 71.2 °F 34 °F 30.10 in SSE 2 mph 4 mph 25% 0 in
12:05 71.5 °F 35 °F 30.10 in SSE 2 mph 5 mph 26% 0 in
12:10 72 °F 34 °F 30.09 in WSW 3 mph 5 mph 25% 0 in
12:15 71.6 °F 33 °F 30.09 in Calm   5 mph 24% 0 in
12:20 71.5 °F 33 °F 30.09 in Calm   5 mph 24% 0 in
12:25 71.6 °F 35 °F 30.08 in WSW 1 mph 4 mph 26% 0 in
12:30 72.3 °F 35 °F 30.08 in Calm   4 mph 25% 0 in
12:35 72.7 °F 34 °F 30.08 in Calm   4 mph 24% 0 in
12:40 72.7 °F 34 °F 30.08 in SSE 3 mph 5 mph 24% 0 in
12:45 73.1 °F 33 °F 30.07 in SSW 2 mph 5 mph 23% 0 in
12:50 73.2 °F 33 °F 30.07 in SSW 4 mph 4 mph 23% 0 in
12:55 73.3 °F 32 °F 30.07 in Calm   5 mph 22% 0 in
13:00 73.2 °F 34 °F 30.07 in Calm   3 mph 24% 0 in
13:05 73.2 °F 32 °F 30.07 in Calm   3 mph 22% 0 in
13:10 73.5 °F 33 °F 30.06 in SE 2 mph 5 mph 23% 0 in
13:15 73.5 °F 32 °F 30.06 in ESE 2 mph 7 mph 22% 0 in
13:20 73 °F 33 °F 30.06 in SE 1 mph 7 mph 23% 0 in
13:25 72.4 °F 32 °F 30.06 in SE 2 mph 9 mph 23% 0 in
13:30 71.9 °F 33 °F 30.06 in SE 2 mph 9 mph 24% 0 in
13:35 71.6 °F 33 °F 30.06 in South 1 mph 6 mph 24% 0 in
13:40 71.1 °F 32 °F 30.06 in SSE 4 mph 9 mph 24% 0 in
13:45 70.9 °F 33 °F 30.05 in SE 3 mph 9 mph 25% 0 in
13:50 71.5 °F 34 °F 30.06 in SE 4 mph 8 mph 25% 0 in
13:55 72 °F 33 °F 30.06 in SW 1 mph 8 mph 24% 0 in
14:00 72 °F 34 °F 30.05 in SSE 2 mph 8 mph 25% 0 in
14:05 72.2 °F 34 °F 30.05 in SW 3 mph 8 mph 25% 0 in
14:10 72.5 °F 34 °F 30.05 in SE 6 mph 8 mph 24% 0 in
14:15 72.9 °F 34 °F 30.05 in SE 4 mph 8 mph 24% 0 in
14:20 72.8 °F 34 °F 30.05 in South 5 mph 8 mph 24% 0 in
14:25 72.5 °F 34 °F 30.05 in SE 6 mph 8 mph 24% 0 in
14:30 72.8 °F 34 °F 30.05 in SSE 4 mph 10 mph 24% 0 in
14:30 72.8 °F 34 °F 30.05 in SSE 3 mph 10 mph 24% 0 in
14:40 72.4 °F 35 °F 30.05 in WSW 1 mph 8 mph 25% 0 in
14:45 72.5 °F 35 °F 30.05 in SSW 4 mph 7 mph 25% 0 in
14:50 72.7 °F 35 °F 30.05 in South 4 mph 7 mph 25% 0 in
14:55 72.6 °F 34 °F 30.05 in WSW 4 mph 10 mph 24% 0 in
15:00 72.2 °F 33 °F 30.05 in SE 3 mph 10 mph 24% 0 in
15:05 71.8 °F 34 °F 30.05 in SE 4 mph 9 mph 25% 0 in
15:10 71.4 °F 34 °F 30.05 in WSW 2 mph 7 mph 25% 0 in
15:15 71.1 °F 34 °F 30.04 in SW 1 mph 6 mph 26% 0 in
15:20 70.7 °F 34 °F 30.05 in South 2 mph 6 mph 26% 0 in
15:25 70.4 °F 34 °F 30.05 in SW 4 mph 6 mph 26% 0 in
15:30 70.4 °F 34 °F 30.05 in SW 4 mph 6 mph 26% 0 in
15:35 69.6 °F 34 °F 30.04 in SE 3 mph 7 mph 27% 0 in
15:40 69.6 °F 34 °F 30.04 in SE 3 mph 7 mph 27% 0 in
15:45 69.6 °F 34 °F 30.04 in SE 3 mph 7 mph 27% 0 in
15:50 69.6 °F 34 °F 30.04 in SE 3 mph 7 mph 27% 0 in
15:55 69.8 °F 34 °F 30.05 in SE 1 mph 4 mph 27% 0 in
16:00 69.5 °F 34 °F 30.05 in SSE 1 mph 4 mph 27% 0 in
16:05 69.5 °F 34 °F 30.05 in Calm   4 mph 27% 0 in
16:10 69.8 °F 35 °F 30.05 in SE 1 mph 2 mph 28% 0 in
Anthen North Phoenix Weather
Compliments of Weather Underground - 2 mb